Home   Weather   Fort Lauderdale   Past weeks

Flag for USA Past Weather in Fort Lauderdale, Florida, USA — Yesterday and Last 2 Weeks

84 °F

Scattered clouds.

Feels Like: 84 °F
Forecast: 71 / 83 °F
Wind: 14 mph from Northwest

Location: Fort Lauderdale / Hollywood International Airport

Current Time: Oct 21, 2016 at 6:09:24 PM

Latest Report: Oct 21, 2016 at 4:53 PM

Visibility: 10 mi

Pressure: 29.77 "Hg

Humidity: 45%

Dew Point: 60 °F

Location of Fort LauderdaleLocation

Past Weather in Fort Lauderdale — Graph


Fort Lauderdale Temperature Yesterday

Maximum temperature yesterday: 82 °F (at 11:53 AM)
Minimum temperature yesterday: 73 °F (at 6:53 AM)
Average temperature yesterday: 77 °F

High & Low Weather Summary for the Past Weeks

High90 °F (Oct 8, 2:53 PM)100% (Oct 6, 7:53 PM)30.09 "Hg (Oct 6, 7:53 PM)
Low70 °F (Oct 21, 3:53 AM)45% (Oct 21, 4:53 PM)29.43 "Hg (Oct 6, 7:01 PM)
Average80 °F71%29.91 "Hg
* Reported Oct 6 4:53 PM — Oct 21 4:53 PM, Fort Lauderdale, Weather by CustomWeather, © 2016

Note: Actual official high and low records may vary slightly from our data, if they occured in-between our weather recording intervals... More about our weather records


Fort Lauderdale Weather History for the Previous 24 Hours

Scroll right to see more
Time TempWeatherWind HumidityBarometerVisibility
4:53 PM
Fri, Oct 21
84 °FScattered clouds.14 mph45%29.77 "Hg10 mi
3:53 PM84 °FPassing clouds.13 mph46%29.77 "Hg10 mi
2:53 PM84 °FPassing clouds.14 mph48%29.77 "Hg10 mi
1:53 PM83 °FPassing clouds.10 mph53%29.78 "Hg10 mi
12:53 PM82 °FPassing clouds.N/A60%29.80 "Hg10 mi
11:53 AM81 °FPassing clouds.10 mph62%29.83 "Hg10 mi
10:53 AM79 °FSunny.8 mph67%29.83 "Hg10 mi
9:53 AM77 °FPassing clouds.10 mph71%29.83 "Hg10 mi
8:53 AM73 °FPassing clouds.7 mph84%29.82 "Hg10 mi
7:53 AM70 °FPassing clouds.5 mph90%29.81 "Hg10 mi
6:53 AM70 °FPassing clouds.5 mph93%29.80 "Hg10 mi
5:53 AM70 °FPassing clouds.6 mph93%29.79 "Hg10 mi
4:53 AM70 °FClear.5 mph90%29.79 "Hg10 mi
3:53 AM70 °FPassing clouds.3 mph90%29.80 "Hg10 mi
2:53 AM71 °FPassing clouds.6 mph90%29.81 "Hg10 mi
1:53 AM72 °FPassing clouds.6 mph87%29.83 "Hg10 mi
12:53 AM73 °FPassing clouds.6 mph81%29.83 "Hg10 mi
11:53 PM
Thu, Oct 20
73 °FPassing clouds.5 mph81%29.84 "Hg10 mi
10:53 PM74 °FPassing clouds.5 mph82%29.84 "Hg10 mi
9:53 PM75 °FPassing clouds.3 mph79%29.84 "Hg10 mi
8:53 PM76 °FPassing clouds.5 mph74%29.84 "Hg10 mi
7:53 PM76 °FPassing clouds.5 mph82%29.83 "Hg10 mi
6:53 PM76 °FPassing clouds.7 mph80%29.82 "Hg10 mi
Weather by CustomWeather, © 2016

See weather overviewHow to use our weather pages